This demonstration page uses our WeatherBlox Daily Observations layout. Learn more.

Left ArrowRight Arrow

41.55636, -103.73856

Hourly Observations for July 29, 2020

Temp ( °F °C ) Dew Point ( °F °C ) Humidity (%) Winds ( mph kmh ) Pressure ( in mb ) Visibility ( mi km ) Precip ( " mm )
6:59 pm 18:59 Cloudy 74 23.2 52 11.3 47 47 Calm 29.91 1013 10 16 0.00 0.00
8:58 pm 20:58 Mostly Cloudy 72 22.1 51 10.4 48 48 SE 6 9 29.91 1013 10 16 0.00 0.00
11:56 pm 23:56 Clear 66 19 54 12.4 66 66 SW 17 28 29.89 1012 10 16 0.00 0.00
12:58 am 00:58 Mostly Clear 65 18.5 56 13.4 72 72 SW 16 26 29.88 1012 10 16 0.00 0.00
1:58 am 01:58 Partly Cloudy 63 17.4 54 12.4 73 73 SW 12 19 29.85 1011 10 16 0.00 0.00
2:58 am 02:58 Clear 64 17.7 51 10.7 64 64 W 3 6 29.85 1011 10 16 0.00 0.00
3:58 am 03:58 Clear 64 17.5 49 9.5 60 60 W 8 13 29.83 1010 10 16 0.00 0.00
4:58 am 04:58 Clear 59 14.9 49 9.7 71 71 NNW 3 6 29.88 1012 10 16 0.00 0.00
5:58 am 05:58 Sunny 59 14.8 49 9.3 70 70 SW 6 9 29.92 1013 10 16 0.00 0.00
6:58 am 06:58 Sunny 62 16.9 51 10.7 67 67 SW 7 11 29.91 1013 10 16 0.00 0.00
7:58 am 07:58 Sunny 72 22 45 7 38 38 WSW 12 19 29.88 1012 10 16 0.00 0.00
8:58 am 08:58 Sunny 76 24.7 43 5.9 30 30 WNW 22 35 29.87 1012 10 16 0.00 0.00
9:58 am 09:58 Sunny 78 25.7 44 6.9 30 30 NW 16 26 29.87 1012 10 16 0.00 0.00
10:58 am 10:58 Sunny 82 27.5 44 6.5 26 26 NNW 14 22 29.86 1011 10 16 0.00 0.00
11:58 am 11:58 Sunny 82 27.8 45 7.2 27 27 NNW 8 13 29.88 1012 10 16 0.00 0.00
12:58 pm 12:58 Mostly Sunny 85 29.2 44 6.8 24 24 NW 17 28 29.86 1011 10 16 0.00 0.00
1:58 pm 13:58 Mostly Cloudy with Light Rain 83 28.1 49 9.5 31 31 NNW 23 37 29.86 1011 10 16 0.00 0.00
2:58 pm 14:58 Partly Cloudy 85 29.2 45 7.4 25 25 NW 18 30 29.86 1011 10 16 0.00 0.00
3:58 pm 15:58 Mostly Sunny 85 29.6 44 6.8 24 24 N 20 31 29.84 1011 10 16 0.00 0.00
4:58 pm 16:58 Mostly Cloudy 83 28.6 46 8 27 27 N 18 30 29.85 1011 10 16 0.00 0.00
5:58 pm 17:58 Mostly Cloudy 72 22 55 12.7 56 56 N 22 35 29.96 1015 10 16 0.00 0.00

Powered by AerisWeather